TimeAKDT,TemperatureF,Dew PointF,Humidity,Sea Level PressureIn,VisibilityMPH,Wind Direction,Wind SpeedMPH,Gust SpeedMPH,PrecipitationIn,Events,Conditions,WindDirDegrees,DateUTC
12:53 AM,43.0,39.9,89,29.49,9.0,NE,5.8,-,0.01,Rain,Light Rain,50,2013-05-13 08:53:00
1:53 AM,42.1,39.9,92,29.49,9.0,ENE,5.8,-,0.00,Rain,Light Rain,60,2013-05-13 09:53:00
2:53 AM,42.1,39.0,89,29.47,10.0,ENE,5.8,-,0.01,,Overcast,60,2013-05-13 10:53:00
3:33 AM,42.8,39.2,87,29.46,9.0,NE,4.6,-,N/A,,Overcast,40,2013-05-13 11:33:00
3:53 AM,42.1,39.0,89,29.46,10.0,ENE,6.9,-,N/A,,Overcast,60,2013-05-13 11:53:00
4:53 AM,41.0,37.9,89,29.44,10.0,ENE,3.5,-,N/A,,Mostly Cloudy,60,2013-05-13 12:53:00
5:53 AM,39.9,37.0,89,29.43,10.0,NE,3.5,-,N/A,,Overcast,40,2013-05-13 13:53:00
6:53 AM,41.0,37.9,89,29.43,10.0,SSW,5.8,-,N/A,,Scattered Clouds,210,2013-05-13 14:53:00
7:53 AM,42.1,39.0,89,29.43,10.0,SW,5.8,-,N/A,,Mostly Cloudy,230,2013-05-13 15:53:00
8:53 AM,43.0,39.0,86,29.43,10.0,SW,9.2,-,N/A,,Clear,230,2013-05-13 16:53:00
9:53 AM,44.1,39.9,85,29.43,10.0,SW,8.1,-,N/A,,Mostly Cloudy,220,2013-05-13 17:53:00
10:53 AM,45.0,39.0,80,29.43,10.0,West,8.1,-,N/A,,Mostly Cloudy,260,2013-05-13 18:53:00
12:53 PM,46.9,39.9,77,29.44,10.0,West,10.4,-,N/A,,Mostly Cloudy,260,2013-05-13 20:53:00
1:53 PM,43.0,39.9,89,29.43,10.0,West,12.7,-,0.01,Rain,Light Rain,260,2013-05-13 21:53:00
2:53 PM,44.1,39.9,85,29.44,9.0,West,12.7,-,0.00,Rain,Light Rain,260,2013-05-13 22:53:00
4:53 PM,43.0,37.9,82,29.44,10.0,West,10.4,-,0.00,Rain,Light Rain,260,2013-05-14 00:53:00
5:53 PM,44.1,35.1,71,29.45,10.0,WSW,10.4,-,0.00,,Overcast,250,2013-05-14 01:53:00
6:45 PM,44.6,35.6,71,29.45,10.0,SW,8.1,-,N/A,,Overcast,230,2013-05-14 02:45:00
6:53 PM,43.0,35.1,74,29.45,10.0,SW,8.1,-,N/A,,Overcast,230,2013-05-14 02:53:00
7:53 PM,43.0,35.1,74,29.45,10.0,SW,4.6,-,N/A,,Overcast,230,2013-05-14 03:53:00
8:53 PM,43.0,34.0,71,29.45,10.0,WSW,4.6,-,N/A,,Overcast,240,2013-05-14 04:53:00
9:53 PM,41.0,36.0,82,29.47,10.0,WSW,5.8,-,N/A,,Overcast,250,2013-05-14 05:53:00
10:53 PM,41.0,34.0,76,29.47,10.0,WSW,6.9,-,0.00,Rain,Light Rain,240,2013-05-14 06:53:00
11:53 PM,41.0,35.1,79,29.48,7.0,West,4.6,-,0.02,Rain,Light Rain,260,2013-05-14 07:53:00